Location: Yaylakuzdere
(36.5736°N, 30.4208°E)
Time: 20:27:20
(UTC+00:00)

Daily predictions for brighter satellites

Satellite Brightness Start Highest point End
(mag) Time Altitude Azimuth Time Altitude Azimuth Time Altitude Azimuth
Cosmos 2263 Rocket 4.1 16:08:58 10° SW 16:13:56 33° WNW 16:18:56 10° N
COSMO-SKYMED 1 2.9 16:11:17 10° N 16:15:38 73° WNW 16:19:56 10° SSW
Cosmos 1844 Rocket 2.8 16:12:58 10° S 16:18:19 52° ESE 16:23:43 10° NNE
Shenzhou-11 Module 0.9 16:18:09 10° WSW 16:20:15 80° SSE 16:22:20 10° ENE
NOSS 3-4 (A) 4.1 16:16:23 10° S 16:21:18 29° ESE 16:26:22 10° NE
NOSS 3-4 (C) 4.1 16:16:31 10° SSE 16:21:25 28° ESE 16:26:28 10° NE
Cosmos 372 Rocket 4.1 16:16:42 10° SSW 16:21:57 84° WNW 16:27:12 10° NNE
Cosmos 1939 Rocket 3.0 16:19:13 10° SSE 16:23:20 86° WSW 16:27:30 10° NNW
Cosmos 1844 3.9 16:20:06 10° S 16:25:32 47° ESE 16:30:56 10° NE
USA 116 4.0 16:22:28 10° NNE 16:26:13 49° E 16:30:26 10° S
Meteor 1-12 Rocket 4.3 16:22:31 10° S 16:28:18 61° E 16:34:02 10° NNE
Cosmos 1842 4.1 16:25:51 10° NNW 16:29:38 54° W 16:33:25 10° S
Cosmos 1707 2.9 16:29:01 10° N 16:32:45 48° E 16:36:27 10° SSE
CZ-2C R/B 1.6 16:29:42 10° W 16:33:26 48° SSW 16:36:37 12° ESE
ISS -0.7 16:36:50 10° NNW 16:37:24 10° NNW 16:37:58 10° N
USA 186 4.1 16:39:33 10° ENE 16:39:33 10° ENE 16:39:45 10° NE
Cosmos 1300 Rocket 3.5 16:35:16 10° S 16:39:38 71° E 16:44:03 10° NNE
CENTAUR R/B 3.8 16:33:14 10° NNW 16:40:42 37° NE 16:47:33 14° ESE
Cosmos 2298 Rocket 4.2 16:37:19 10° SSW 16:42:39 82° WNW 16:48:00 10° NNE
Okean 1 Rocket 4.2 16:39:18 10° SE 16:42:50 23° E 16:46:24 10° NE
ATLAS 2AS CENTAUR R/B 3.3 16:36:04 10° S 16:43:24 45° ESE 16:50:52 10° NE
Sich 1 Rocket 4.3 16:39:06 10° SSW 16:43:33 61° W 16:48:03 10° N
CSL-04 Debris 4.2 16:40:26 10° SSE 16:45:41 59° ENE 16:51:00 10° N
CSL-04 Rocket 3.7 16:42:26 10° SSE 16:47:44 59° ENE 16:53:08 10° N
ATLAS 3B R/B 4.5 16:48:20 10° N 16:52:01 15° NE 16:55:19 11° ENE
BREEZE-M DEB (TANK) 3.4 16:50:35 10° WSW 16:53:18 65° NW 17:00:33 10° NE
Okean 2 Rocket 3.3 16:49:23 10° S 16:53:51 76° W 16:58:20 10° N
YAOGAN 1 2.7 16:50:32 10° S 16:54:51 76° WSW 16:59:11 10° NNW
Cosmos 1766 4.3 16:53:36 16° SE 16:55:43 25° E 16:58:57 10° NE
Cosmos 1025 Rocket 2.9 16:56:06 10° N 17:00:31 75° E 17:04:54 10° SSE
Milstar 3 Cent rocket 3.5 16:52:37 10° WSW 17:00:35 37° S 17:03:49 20° ESE
Cosmos 1125 Rocket 3.5 16:58:12 10° SSW 17:03:31 87° WNW 17:08:52 10° NNE
GOES 2 Rocket 4.2 17:02:37 10° WSW 17:06:17 27° S 17:07:57 21° SE
Cosmos 1464 Rocket 4.3 17:01:07 10° SSW 17:07:12 69° W 17:13:22 10° N
Cosmos 2285 Rocket 3.9 17:03:10 10° SSW 17:09:26 80° ESE 17:15:48 10° NNE
USA 238 DEB 3.9 17:02:35 10° NNW 17:09:53 70° ENE 17:15:45 18° SE
USA 238 3.9 17:02:42 10° NNW 17:09:59 69° NE 17:15:48 18° SE
Cosmos 1536 Rocket 3.5 17:05:35 10° N 17:10:02 70° E 17:14:29 10° SSE
CZ-2C R/B 3.3 17:05:18 10° S 17:10:33 76° WSW 17:16:09 10° NNW
Abrixas rocket 4.2 17:09:10 10° NNW 17:10:49 14° NNE 17:10:55 14° NNE
SJ-6B 4.3 17:12:53 20° NE 17:12:53 20° NE 17:14:49 10° NNE
SJ-11-01 4.3 17:07:14 10° SSE 17:11:57 88° WSW 17:16:40 10° NNW
CZ-4 R/B 3.2 17:09:46 10° SSW 17:13:37 35° W 17:17:28 10° NNW
Cosmos 1092 Rocket 4.3 17:10:11 10° N 17:16:03 43° E 17:19:34 23° SE
TSX-5 3.6 17:20:01 10° SSW 17:23:33 88° ESE 17:28:01 10° NNE
Cosmos 1674 2.5 17:20:53 10° N 17:24:42 66° E 17:25:26 52° SE
ARGOS 3.0 17:20:23 10° SSE 17:25:44 84° ENE 17:31:08 10° NNW
MOS 1 Rocket 3.7 17:22:18 10° N 17:26:32 56° WNW 17:30:42 10° SSW
MOS 1 4.5 17:30:21 38° ESE 17:32:00 49° ENE 17:37:28 10° N
NOSS 3-2 (A) 4.2 17:26:40 10° NW 17:34:32 80° WSW 17:41:26 18° SSE
Cosmos 1048 Rocket 4.4 17:29:30 10° NNW 17:34:48 65° WSW 17:39:30 13° S
CZ-2C R/B 2.6 17:29:16 10° NNE 17:34:51 72° ESE 17:40:27 10° S
Cosmos 1733 3.4 17:38:58 56° NNE 17:38:58 56° NNE 17:42:04 10° N
Cosmos 2082 Rocket 4.2 17:37:53 10° NNE 17:39:26 13° NE 17:39:26 13° NE
DMSP B5D2-2 3.9 17:39:57 10° NNE 17:45:16 76° ESE 17:50:31 10° S
Cosmos 494 Rocket 4.0 17:42:34 10° NNW 17:47:51 78° WSW 17:49:48 40° S
Ariane Rocket 2.8 17:47:53 57° SSE 17:48:56 81° ENE 17:54:01 10° N
Cosmos 1805 4.3 17:46:07 10° SSW 17:49:51 46° W 17:53:38 10° N
H-2A R/B 3.2 17:45:25 10° SSW 17:50:02 39° W 17:54:48 10° NNW
USA 234 3.4 17:50:46 47° SE 17:50:51 47° SE 17:57:05 10° SSW
SL-08 RB Rocket 3.8 17:49:45 44° S 17:51:06 72° WSW 17:55:39 10° NNW
MetOp-A 3.9 17:58:58 76° ESE 17:59:17 80° ENE 18:04:39 10° N
Cosmos 1269 Rocket 4.0 17:54:06 10° NNW 17:59:06 69° NE 17:59:06 69° NE
Cosmos 2278 Rocket 2.8 18:00:17 10° SSW 18:10:00 20° NNE 18:11:36 10° NNE
COSMOS 2406 3.7 18:01:24 10° NNW 18:05:51 45° NNE 18:05:51 45° NNE
IRS-1A Rocket 4.5 18:04:55 41° S 18:07:02 73° WSW 18:12:53 10° NNW
USA 186 4.5 18:11:04 19° NW 18:11:04 19° NW 18:12:18 10° NNW
CZ-2C R/B 3.8 18:10:22 10° WSW 18:10:59 12° WSW 18:10:59 12° WSW
NOSS 3-2 (C) 4.3 18:04:55 10° NW 18:12:45 72° WSW 18:16:08 41° S
Meteor 2-5 Rocket 4.1 18:11:17 10° NNW 18:16:55 63° W 18:18:15 49° SSW
Meteor 1-24 Rocket 3.8 18:13:55 10° NNW 18:19:24 78° WNW 18:19:24 78° WNW
Resurs 01 Rocket 4.0 18:25:52 15° N 18:25:52 15° N 18:26:41 10° N
CENTAUR R/B 3.6 18:23:39 10° NW 18:31:52 60° WSW 18:34:46 42° S
Cosmos 1833 Rocket 3.8 18:26:49 10° NNW 18:30:12 36° N 18:30:12 36° N
ATLAS 2AS CENTAUR R/B 4.1 18:27:03 10° WSW 18:34:27 42° NW 18:41:54 10° NNE
ATLAS 3B R/B 3.2 18:37:10 10° NNW 18:42:35 52° N 18:42:35 52° N
Cosmos 2082 Rocket 4.4 19:19:44 10° NNW 19:21:17 19° NNW 19:21:17 19° NNW
